Wisconsin Dells, Wisconsin, United States (53965)
Lat: 43.63N, Lon: 89.77W
Wx Zone: WIZ057
Local Info
Past Weather Observations for Tuesday, April 15, 2014

NOTE: This archive is for the closest National Weather Service station to Wisconsin Dells. Information may differ from the station used for current weather conditions.

Time Weather Temperature Dewpoint Humidity Pressure Winds Precip Visibility
23:55
Mostly Cloudy
28°F / -2°C 18°F / -8°C 64% 30.15 in
(1021 mb)
ESE 5.8 mph
(ESE 9 kph)
- 10SM
23:35
Partly Cloudy
28°F / -2°C 18°F / -8°C 64% 30.15 in
(1021 mb)
ESE 4.6 mph
(ESE 7 kph)
- 10SM
23:15
Partly Cloudy
28°F / -2°C 18°F / -8°C 64% 30.15 in
(1021 mb)
ESE 3.5 mph
(ESE 6 kph)
- 10SM
22:55
Clear
27°F / -3°C 18°F / -8°C 69% 30.15 in
(1021 mb)
E 3.5 mph
(E 6 kph)
- 10SM
22:35
Partly Cloudy
27°F / -3°C 19°F / -7°C 74% 30.15 in
(1021 mb)
Calm - 10SM
22:15
Mostly Cloudy
27°F / -3°C 19°F / -7°C 74% 30.15 in
(1021 mb)
Calm - 10SM
21:55
Mostly Cloudy
27°F / -3°C 19°F / -7°C 74% 30.15 in
(1021 mb)
Calm - 10SM
21:35
Partly Cloudy
28°F / -2°C 19°F / -7°C 69% 30.15 in
(1021 mb)
E 3.5 mph
(E 6 kph)
- 10SM
21:15
Mostly Cloudy
28°F / -2°C 19°F / -7°C 69% 30.15 in
(1021 mb)
E 4.6 mph
(E 7 kph)
- 10SM
20:55
Overcast
28°F / -2°C 19°F / -7°C 69% 30.15 in
(1021 mb)
E 3.5 mph
(E 6 kph)
- 10SM
20:35
Partly Cloudy
27°F / -3°C 19°F / -7°C 74% 30.15 in
(1021 mb)
E 4.6 mph
(E 7 kph)
- 10SM
20:15
Clear
28°F / -2°C 19°F / -7°C 69% 30.15 in
(1021 mb)
Calm - 10SM
19:55
Clear
27°F / -3°C 21°F / -6°C 80% 30.12 in
(1020 mb)
Calm - 10SM
19:35
Clear
28°F / -2°C 21°F / -6°C 74% 30.12 in
(1020 mb)
Calm - 10SM
19:15
Clear
28°F / -2°C 19°F / -7°C 69% 30.12 in
(1020 mb)
Calm - 10SM
18:55
Clear
32°F / 0°C 14°F / -10°C 47% 30.12 in
(1020 mb)
Calm - 10SM
18:35
Clear
32°F / 0°C 14°F / -10°C 47% 30.12 in
(1020 mb)
Calm - 10SM
18:15
Clear
32°F / 0°C 16°F / -9°C 51% 30.09 in
(1019 mb)
Calm - 10SM
17:55
Clear
32°F / 0°C 14°F / -10°C 47% 30.09 in
(1019 mb)
W 3.5 mph
(W 6 kph)
- 10SM
17:35
Clear
34°F / 1°C 14°F / -10°C 44% 30.09 in
(1019 mb)
Calm - 10SM
17:15
Partly Cloudy
34°F / 1°C 14°F / -10°C 44% 30.09 in
(1019 mb)
WNW 3.5 mph
(WNW 6 kph)
- 10SM
16:55
Partly Cloudy
34°F / 1°C 14°F / -10°C 44% 30.09 in
(1019 mb)
NW 6.9 mph
(NW 11 kph)
- 10SM
16:35
Partly Cloudy
34°F / 1°C 16°F / -9°C 48% 30.09 in
(1019 mb)
W 6.9 mph
(W 11 kph)
- 10SM
16:15
Partly Cloudy
34°F / 1°C 16°F / -9°C 48% 30.09 in
(1019 mb)
Calm - 10SM
15:55
Partly Cloudy
34°F / 1°C 16°F / -9°C 48% 30.09 in
(1019 mb)
W 5.8 mph
(W 9 kph)
- 10SM
15:35
Partly Cloudy
32°F / 0°C 16°F / -9°C 51% 30.09 in
(1019 mb)
W 6.9 mph
(W 11 kph)
- 10SM
15:15
Overcast
32°F / 0°C 16°F / -9°C 51% 30.09 in
(1019 mb)
Calm - 10SM
14:55
Mostly Cloudy
32°F / 0°C 16°F / -9°C 51% 30.09 in
(1019 mb)
NW 3.5 mph
(NW 6 kph)
- 10SM
14:35
Mostly Cloudy
32°F / 0°C 18°F / -8°C 55% 30.09 in
(1019 mb)
NW 8.1 mph
(NW 13 kph)
- 10SM
14:10
Mostly Cloudy
32°F / 0°C 16°F / -9°C 51% 30.09 in
(1019 mb)
W 10.4 mph
(W 17 kph)
- 10SM
13:55
Overcast
32°F / 0°C 18°F / -8°C 55% 30.12 in
(1020 mb)
NW 4.6 mph
(NW 7 kph)
- 10SM
13:35
Mostly Cloudy
32°F / 0°C 18°F / -8°C 55% 30.12 in
(1020 mb)
WNW 6.9 mph
(WNW 11 kph)
- 10SM
13:15
Mostly Cloudy
30°F / -1°C 14°F / -10°C 51% 30.12 in
(1020 mb)
W 9.2 mph
(W 15 kph)
- 10SM
12:55
Mostly Cloudy
32°F / 0°C 18°F / -8°C 55% 30.12 in
(1020 mb)
W 8.1 mph
(W 13 kph)
- 10SM
12:35
Overcast
30°F / -1°C 18°F / -8°C 59% 30.12 in
(1020 mb)
W 5.8 mph
(W 9 kph)
- 10SM
12:15
Mostly Cloudy
30°F / -1°C 16°F / -9°C 55% 30.12 in
(1020 mb)
NW 6.9 mph
(NW 11 kph)
- 10SM
11:55
Mostly Cloudy
30°F / -1°C 14°F / -10°C 51% 30.12 in
(1020 mb)
W 11.5 mph
(W 19 kph)
- 10SM
11:35
Mostly Cloudy
28°F / -2°C 14°F / -10°C 55% 30.12 in
(1020 mb)
WNW 9.2 mph
(WNW 15 kph)
- 10SM
11:15
Overcast
28°F / -2°C 16°F / -9°C 59% 30.12 in
(1020 mb)
WNW 13.8 mph
(WNW 22 kph)
- 10SM
10:55
Overcast
28°F / -2°C 14°F / -10°C 55% 30.12 in
(1020 mb)
NW 9.2 mph
(NW 15 kph)
- 10SM
10:35
Overcast
28°F / -2°C 14°F / -10°C 55% 30.12 in
(1020 mb)
NW 6.9 mph
(NW 11 kph)
- 10SM
10:15
Mostly Cloudy
28°F / -2°C 16°F / -9°C 59% 30.12 in
(1020 mb)
SSW 5.8 mph
(SSW 9 kph)
- 10SM
09:55
Partly Cloudy
28°F / -2°C 18°F / -8°C 64% 30.12 in
(1020 mb)
W 9.2 mph
(W 15 kph)
- 10SM
09:35
Clear
27°F / -3°C 18°F / -8°C 69% 30.12 in
(1020 mb)
W 4.6 mph
(W 7 kph)
- 10SM
09:15
Clear
25°F / -4°C 18°F / -8°C 74% 30.12 in
(1020 mb)
WNW 8.1 mph
(WNW 13 kph)
- 10SM
08:55
Clear
23°F / -5°C 21°F / -6°C 93% 30.12 in
(1020 mb)
SSW 8.1 mph
(SSW 13 kph)
- 10SM
08:35
Clear
23°F / -5°C 21°F / -6°C 93% 30.12 in
(1020 mb)
SSW 4.6 mph
(SSW 7 kph)
- 10SM
08:15
Clear
23°F / -5°C 21°F / -6°C 93% 30.09 in
(1019 mb)
Calm - 10SM
07:55
Clear
23°F / -5°C 21°F / -6°C 93% 30.09 in
(1019 mb)
W 3.5 mph
(W 6 kph)
- 10SM
07:30
Clear
21°F / -6°C 19°F / -7°C 93% 30.09 in
(1019 mb)
Calm - 10SM
07:15
Clear
19°F / -7°C 19°F / -7°C 100% 30.09 in
(1019 mb)
Calm - 10SM
06:55
Clear
18°F / -8°C 16°F / -9°C 93% 30.09 in
(1019 mb)
Calm - 7SM
06:35
Obscured
Fog
16°F / -9°C 14°F / -10°C 93% 30.09 in
(1019 mb)
Calm - M1/4SM
06:15
Mostly Cloudy
Fog
14°F / -10°C 12°F / -11°C 92% 30.09 in
(1019 mb)
Calm - M1/4SM
05:55
Mostly Cloudy
Fog
12°F / -11°C 10°F / -12°C 92% 30.09 in
(1019 mb)
Calm - M1/4SM
05:35
Obscured
Fog
12°F / -11°C 10°F / -12°C 92% 30.06 in
(1018 mb)
Calm - M1/4SM
05:15
Mostly Cloudy
Fog
14°F / -10°C 10°F / -12°C 85% 30.06 in
(1018 mb)
Calm - M1/4SM
04:55
Mostly Cloudy
Fog
12°F / -11°C 10°F / -12°C 92% 30.06 in
(1018 mb)
Calm - M1/4SM
04:35
Obscured
Fog And Mist
14°F / -10°C 12°F / -11°C 92% 30.06 in
(1018 mb)
Calm - 3/4SM
04:15
Obscured
Fog
16°F / -9°C 14°F / -10°C 93% 30.06 in
(1018 mb)
Calm - 1/4SM
03:55
Clear
Fog And Mist
16°F / -9°C 14°F / -10°C 93% 30.06 in
(1018 mb)
Calm - 5SM
03:35
Partly Cloudy
Fog And Mist
16°F / -9°C 14°F / -10°C 93% 30.06 in
(1018 mb)
Calm - 5SM
03:15
Mostly Cloudy
Fog And Mist
16°F / -9°C 14°F / -10°C 93% 30.06 in
(1018 mb)
Calm - 5SM
02:55
Clear
Fog And Mist
16°F / -9°C 14°F / -10°C 93% 30.04 in
(1017 mb)
Calm - 2 1/2SM
02:35
Clear
18°F / -8°C 16°F / -9°C 93% 30.04 in
(1017 mb)
Calm - 7SM
02:15
Mostly Cloudy
Fog And Mist
16°F / -9°C 14°F / -10°C 93% 30.04 in
(1017 mb)
Calm - 3/4SM
01:55
Obscured
Fog
16°F / -9°C 12°F / -11°C 86% 30.04 in
(1017 mb)
Calm - 1/2SM
01:35
Mostly Cloudy
Fog
18°F / -8°C 16°F / -9°C 93% 30.04 in
(1017 mb)
Calm - 1/4SM
01:15
Mostly Cloudy
19°F / -7°C 18°F / -8°C 93% 30.04 in
(1017 mb)
Calm - 10SM
00:55
Partly Cloudy
19°F / -7°C 18°F / -8°C 93% 30.04 in
(1017 mb)
Calm - 10SM
00:35
Partly Cloudy
19°F / -7°C 18°F / -8°C 93% 30.04 in
(1017 mb)
Calm - 10SM
00:15
Mostly Cloudy
21°F / -6°C 19°F / -7°C 93% 30.04 in
(1017 mb)
Calm - 10SM
Time Weather Temperature Dewpoint Humidity Pressure Winds Precip Visibility


Weather for websites

WeatherForYou.com, LLC is not responsible for any damages or problems caused by this service. Current weather conditions are obtained from the closest station including government and personal stations which may have varying degrees of accuracy. Weather forecasts are derived from the NOAA NDFD. Like all things, this site belongs to Jesus Christ... He just trusts me to maintain it. If you have any questions or comments email webmaster@weatherforyou.com

Copyright © 2014, WeatherForYou.com LLC. All rights reserved.